カタログに戻る

DMSP 5D-2 F13 DEB

LostSSO
NORAD 42296·DEBRIS·🇺🇸 United States

打ち上げ Mar 24, 1995 から Vandenberg Space Force Base

Loading…

次のパス (今後24時間)

TLE

古いSource: Space-Track

元期: Jun 4, 2016, 19:11 UTC

1 42296U 95015HN  16156.79985534  .00001840  00000-0  92551-3 0  9990
2 42296  98.8071 160.8571 0016628  53.4994 306.8117 14.17605117 37541

AllMySatでDMSP 5D-2 F13 DEBをリアルタイム追跡

Download on the App Store